Location: Borea
(45.6167°N, 23.0167°E)
Time: 12:57:11
(UTC+00:00)

Cosmos 1980 Rocket - Visible Passes

Search period start: 17 September 2024 00:00
Search period end: 27 September 2024 00:00
Orbit: 830 x 847 km, 71.0° (Epoch: 16 September)

Date Brightness Start Highest point End Pass type
(mag) Time Alt. Az. Time Alt. Az. Time Alt. Az.
17 Sep 4.5 21:04:40 10° N 21:06:38 16° NNE 21:06:38 16° NNE visible
17 Sep 4.8 22:47:47 10° NNW 22:48:22 13° NNW 22:48:22 13° NNW visible
18 Sep 4.5 20:48:48 10° N 20:50:46 16° NNE 20:50:46 16° NNE visible
18 Sep 4.8 22:31:51 10° NNW 22:32:30 13° NNW 22:32:30 13° NNW visible
19 Sep 4.5 20:32:57 10° N 20:34:55 16° NNE 20:34:55 16° NNE visible
19 Sep 4.8 22:15:54 10° NNW 22:16:38 14° NNW 22:16:38 14° NNW visible
20 Sep 4.5 20:17:05 10° N 20:19:05 15° NNE 20:19:05 15° NNE visible
20 Sep 4.8 21:59:58 10° NNW 22:00:49 15° NNW 22:00:49 15° NNW visible
21 Sep 4.4 20:01:15 10° N 20:03:17 15° NNE 20:03:17 15° NNE visible
21 Sep 4.7 21:44:02 10° NNW 21:45:01 15° NNW 21:45:01 15° NNW visible
22 Sep 4.4 19:45:24 10° N 19:47:30 15° NNE 19:47:30 15° NNE visible
22 Sep 4.7 21:28:05 10° NNW 21:29:14 16° NNW 21:29:14 16° NNW visible
23 Sep 4.4 19:29:34 10° N 19:31:44 14° NNE 19:31:44 14° NNE visible
23 Sep 4.6 21:12:10 10° NNW 21:13:28 18° NNW 21:13:28 18° NNW visible
24 Sep 4.3 19:13:45 10° N 19:15:59 14° NNE 19:15:59 14° NNE visible
24 Sep 4.5 20:56:14 10° NNW 20:57:43 19° NNW 20:57:43 19° NNW visible
25 Sep 4.3 18:57:57 10° N 19:00:16 13° NE 19:00:16 13° NE visible
25 Sep 4.4 20:40:18 10° NNW 20:42:00 20° NNW 20:42:00 20° NNW visible
26 Sep 4.3 18:42:10 10° N 18:44:34 13° NE 18:44:34 13° NE visible
26 Sep 4.3 20:24:22 10° NNW 20:26:18 22° NNW 20:26:18 22° NNW visible
